[[{"header":{"parameterUnit":"m.s-1","parameterCategory":1,"la1":30.2991,"la2":30.254,"lo1":-89.0895,"lo2":-89.0444,"dy":0.0017,"dx":0.0017,"nx":28,"ny":28,"refTime":"2023-07-27T09:00:00:Z","depth":0,"parameterNumber":2,"parameterNumberName":"U-component_of_WINDS"},"data":[0,0,0,0,0,0,0,0,0,0,0,0,0,0,0,0,0,0,0,0,0,0,0,0,0,0,0,0,0,0,0,0,0,0,0,0,0,0,0,0,0,0,0,0,0,0,0,0,0,0,0,0,0,0,0,0,0,0,1.1436,1.1438,0,1.1582,1.1583,1.1585,1.1627,1.1627,1.1626,1.1625,1.1774,1.1779,1.1783,0,0,0,0,0,0,0,0,0,0,0,0,0,1.1193,1.1197,1.1436,1.1438,1.144,1.1581,1.1583,1.1585,1.1627,1.1627,1.1626,1.1625,1.1773,1.1778,1.1784,0,0,0,0,0,0,0,0,0,0,0,0,0,1.1314,1.1198,1.1436,1.1478,1.1483,1.1581,1.1583,1.1586,1.1628,1.1627,1.1625,1.1624,1.1771,1.1778,1.1785,1.1851,0,0,1.1806,1.1809,0,0,0,0,0,0,0,0,1.1307,1.1323,1.147,1.1475,1.1481,1.1585,1.1552,1.1675,1.1628,1.1573,1.1625,1.1624,1.1712,1.1724,1.1754,1.1858,1.1864,1.1807,1.1811,1.1814,1.1816,0,0,0,0,0,0,0,1.1299,1.1317,1.1494,1.1472,1.1479,1.1489,1.1505,1.1576,1.1647,1.1577,1.1581,1.1598,1.1715,1.1747,1.1758,1.1867,1.1806,1.1813,1.1817,1.182,1.203,1.2032,0,0,0,0,0,0,1.1283,1.131,1.1489,1.1498,1.139,1.1494,1.1512,1.1553,1.1647,1.166,1.1598,1.1599,1.1735,1.1749,1.1763,1.1845,1.1814,1.182,1.1825,1.2029,1.2031,1.2032,0,0,0,0,0,0,1.1278,1.1299,1.1483,1.1405,1.1429,1.1499,1.1545,1.1556,1.1588,1.1662,1.1675,1.1618,1.1735,1.1753,1.1828,1.1851,1.1824,1.183,1.2027,1.2029,1.2031,1.2011,0,0,0,0,0,0,1.1271,1.1297,1.1323,1.1405,1.1433,1.1546,1.1547,1.156,1.16,1.1602,1.1684,1.1696,1.1736,1.1818,1.1835,1.186,1.1836,1.2026,1.2028,1.2031,1.201,1.2012,1.2014,0,0,0,0,0,1.1262,1.1312,1.1324,1.1346,1.1468,1.1548,1.1563,1.1607,1.1602,1.1629,1.1676,1.1694,1.1846,1.1825,1.1845,1.1873,1.2024,1.2027,1.203,1.2009,1.2012,1.2014,0,0,0,0,0,0,1.1232,1.1324,1.1338,1.1417,1.1474,1.1555,1.159,1.1609,1.1669,1.1669,1.1721,1.1739,1.181,1.1849,1.1824,1.1941,1.1936,1.1943,1.1912,1.1916,1.1918,1.1906,1.1841,0,0,0,0,0,1.1234,1.1292,1.1369,1.1431,1.1459,1.1519,1.1555,1.1584,1.1646,1.167,1.1723,1.1781,1.1842,1.1881,1.1942,1.2016,1.2034,1.2045,1.2047,1.2048,1.2054,1.2094,1.2099,1.2042,1.2042,1.2042,0,0,1.124,1.1297,1.133,1.1426,1.1474,1.1531,1.1539,1.16,1.1643,1.1679,1.1753,1.1794,1.1862,1.1937,1.1972,1.1972,1.2073,1.2052,1.2053,1.2058,1.2098,1.2103,1.2108,1.2044,1.2044,1.2044,0,0,1.1279,1.1329,1.1385,1.1432,1.1504,1.1544,1.1557,1.1634,1.1662,1.1737,1.1765,1.1817,1.1921,1.1968,1.2006,1.206,1.2079,1.2079,1.2089,1.2128,1.2132,1.2136,1.2154,1.216,1.2084,1.2084,1.2084,0,1.1277,1.1365,1.1411,1.147,1.151,1.1546,1.1602,1.1645,1.1733,1.176,1.1758,1.1888,1.1937,1.2022,1.2035,1.2065,1.208,1.2069,1.2128,1.2133,1.2137,1.2155,1.2162,1.2083,1.2083,1.2084,1.2084,0,1.1358,1.1418,1.1455,1.1538,1.1582,1.164,1.1693,1.1733,1.1758,1.1797,1.1871,1.1931,1.2003,1.2026,1.2051,1.2114,1.2111,1.2118,1.2113,1.2141,1.2159,1.2166,1.2083,1.2083,1.2083,1.2083,0,0,1.1382,1.1489,1.1502,1.1539,1.162,1.1667,1.1725,1.1795,1.1827,1.1887,1.1936,1.2022,1.2028,1.2071,1.2101,1.2135,1.2172,1.2138,1.214,1.2141,1.2243,1.2237,1.2244,1.2185,1.2187,1.2188,1.2237,0,1.143,1.1536,1.1578,1.1664,1.1719,1.1752,1.1803,1.1857,1.1895,1.1947,1.199,1.2049,1.2054,1.208,1.2115,1.216,1.2194,1.2158,1.223,1.2232,1.2211,1.2253,1.2247,1.2291,1.2244,1.2246,1.2247,0,1.1501,1.156,1.165,1.1723,1.1748,1.1792,1.1859,1.1909,1.1971,1.1996,1.2042,1.207,1.2131,1.2123,1.2207,1.2182,1.2214,1.224,1.2243,1.2251,1.224,1.2261,1.2306,1.2312,1.2258,1.2257,1.2256,0,1.1508,1.161,1.1677,1.1708,1.1794,1.1825,1.1862,1.1923,1.1962,1.202,1.2045,1.2109,1.2144,1.2193,1.2237,1.2228,1.2316,1.2313,1.2338,1.2337,1.2355,1.2353,1.2404,1.2377,1.2377,1.2377,1.2377,0,1.1556,1.161,1.168,1.1721,1.1782,1.183,1.1888,1.1928,1.1981,1.203,1.2063,1.2107,1.2164,1.2215,1.225,1.2313,1.2329,1.235,1.2359,1.2347,1.2344,1.2368,1.2366,1.2379,1.2378,1.2378,1.2378,0,1.1574,1.1623,1.1698,1.1774,1.1794,1.1835,1.1899,1.194,1.1979,1.204,1.2057,1.2118,1.218,1.2229,1.2311,1.2334,1.24,1.241,1.2379,1.2383,1.2405,1.2402,1.2473,1.2484,1.245,1.245,1.2451,0,1.1601,1.1643,1.1723,1.1758,1.1795,1.1851,1.189,1.1938,1.1977,1.205,1.2081,1.2146,1.22,1.2297,1.2349,1.2411,1.2422,1.2442,1.2431,1.2417,1.242,1.2417,1.242,1.2443,1.2443,1.2443,1.2444,0,1.1644,1.1666,1.1721,1.1785,1.1831,1.1884,1.1937,1.1963,1.2021,1.2063,1.2127,1.2169,1.2251,1.2314,1.2381,1.2419,1.244,1.2447,1.2455,1.2443,1.2423,1.2433,1.2381,1.2445,1.2445,1.2444,1.2444,1.2444,1.1666,1.1704,1.1766,1.1826,1.1871,1.192,1.1961,1.2004,1.2059,1.2129,1.2154,1.2219,1.2278,1.237,1.2409,1.246,1.2461,1.2474,1.2478,1.248,1.2478,1.2415,1.2472,1.2472,1.2472,1.2472,1.2472,0,1.1709,1.175,1.1805,1.1878,1.1925,1.1941,1.2,1.2038,1.2095,1.2149,1.2201,1.2273,1.2334,1.239,1.2453,1.2483,1.2494,1.2498,1.2495,1.2503,1.2474,1.2459,1.2487,1.2487,1.2487,1.2487,1.2487,1.2487,1.1737,1.1801,1.183,1.1917,1.1958,1.2022,1.2054,1.2098,1.2141,1.222,1.2271,1.2307,1.2361,1.2428,1.2484,1.2498,1.2519,1.252,1.2537,1.2508,1.2506,1.2504,1.249,1.2525,1.2525,1.2563,1.2563,1.2563]},{"header":{"parameterUnit":"m.s-1","parameterCategory":1,"la1":30.2991,"la2":30.254,"lo1":-89.0895,"lo2":-89.0444,"dy":0.0017,"dx":0.0017,"nx":28,"ny":28,"refTime":"2023-07-27T09:00:00:Z","depth":0,"parameterNumber":3,"parameterNumberName":"V-component_of_WINDS"},"data":[0,0,0,0,0,0,0,0,0,0,0,0,0,0,0,0,0,0,0,0,0,0,0,0,0,0,0,0,0,0,0,0,0,0,0,0,0,0,0,0,0,0,0,0,0,0,0,0,0,0,0,0,0,0,0,0,0,0,3.8839,3.8839,0,3.8808,3.8808,3.8807,3.8817,3.8818,3.8819,3.8819,3.878,3.8779,3.8777,0,0,0,0,0,0,0,0,0,0,0,0,0,3.89,3.8899,3.8839,3.8839,3.8838,3.8808,3.8808,3.8807,3.8817,3.8818,3.8819,3.882,3.8781,3.8779,3.8777,0,0,0,0,0,0,0,0,0,0,0,0,0,3.8871,3.8898,3.8839,3.884,3.884,3.8808,3.8808,3.8807,3.8817,3.8818,3.8819,3.882,3.8781,3.8779,3.8777,3.8741,0,0,3.8769,3.8768,0,0,0,0,0,0,0,0,3.8873,3.8869,3.884,3.884,3.8839,3.8818,3.8815,3.8785,3.8817,3.8825,3.8819,3.8821,3.8791,3.8788,3.878,3.8739,3.8737,3.8769,3.8767,3.8766,3.8765,0,0,0,0,0,0,0,3.8875,3.887,3.8827,3.884,3.8839,3.8839,3.8836,3.8809,3.8803,3.8825,3.8825,3.8822,3.8791,3.8782,3.8779,3.8736,3.8769,3.8766,3.8765,3.8764,3.8662,3.8661,0,0,0,0,0,0,3.8878,3.8872,3.8828,3.8826,3.8859,3.8837,3.8834,3.8824,3.8803,3.8801,3.8821,3.8823,3.8786,3.8782,3.8778,3.8733,3.8766,3.8764,3.8762,3.8663,3.8662,3.866,0,0,0,0,0,0,3.8879,3.8874,3.8829,3.8849,3.8843,3.8835,3.8823,3.8822,3.8813,3.8801,3.8799,3.8813,3.8787,3.8781,3.875,3.8732,3.8763,3.876,3.8665,3.8663,3.8661,3.8644,0,0,0,0,0,0,3.8881,3.8875,3.8862,3.8849,3.8842,3.8804,3.8822,3.8821,3.881,3.8812,3.8793,3.8791,3.8787,3.8754,3.8747,3.8729,3.8758,3.8666,3.8664,3.8662,3.8646,3.8641,3.8638,0,0,0,0,0,3.8883,3.8857,3.8862,3.8856,3.8828,3.8803,3.8799,3.8797,3.8809,3.8795,3.8787,3.8791,3.8735,3.875,3.8743,3.8724,3.8667,3.8664,3.8662,3.8647,3.8642,3.8638,0,0,0,0,0,0,3.8867,3.8856,3.886,3.883,3.8818,3.8805,3.8788,3.8792,3.8774,3.8776,3.8773,3.8768,3.8736,3.8727,3.8744,3.8687,3.8702,3.8698,3.8694,3.8689,3.8685,3.8687,3.8756,0,0,0,0,0,3.886,3.8843,3.8834,3.8807,3.8801,3.8796,3.8785,3.8785,3.8771,3.8765,3.8754,3.8738,3.8717,3.8702,3.8682,3.8645,3.864,3.8628,3.8624,3.8621,3.8616,3.8594,3.8588,3.8652,3.8652,3.8652,0,0,3.8845,3.8837,3.8826,3.8804,3.8794,3.8774,3.8791,3.8769,3.8754,3.8761,3.8731,3.8722,3.8704,3.8669,3.8653,3.866,3.8598,3.8617,3.8615,3.8612,3.8591,3.8585,3.8579,3.865,3.865,3.865,0,0,3.8807,3.88,3.8777,3.8768,3.8754,3.875,3.8745,3.8731,3.8726,3.8697,3.8701,3.8681,3.8645,3.8632,3.862,3.8577,3.858,3.857,3.8549,3.8527,3.8522,3.8517,3.85,3.8494,3.8567,3.8567,3.8567,0,3.8789,3.8762,3.8764,3.8743,3.8732,3.874,3.8715,3.8705,3.8684,3.8675,3.8684,3.8638,3.8627,3.8588,3.8578,3.8569,3.856,3.8572,3.8523,3.8519,3.8514,3.8498,3.8491,3.8565,3.8566,3.8566,3.8566,0,3.874,3.8721,3.8704,3.8686,3.8673,3.865,3.8646,3.8633,3.8634,3.8628,3.8597,3.8584,3.856,3.8551,3.8551,3.8512,3.8517,3.8525,3.854,3.8507,3.8491,3.8485,3.8564,3.8564,3.8564,3.8565,0,0,3.869,3.8674,3.8668,3.8659,3.8644,3.8628,3.8604,3.8584,3.8571,3.8556,3.8535,3.8504,3.8511,3.8498,3.8496,3.8478,3.8442,3.8488,3.8487,3.8478,3.8395,3.8388,3.8381,3.8445,3.8443,3.8443,3.8396,0,3.865,3.8611,3.8612,3.8574,3.8555,3.8562,3.8541,3.8528,3.8523,3.8504,3.8496,3.8474,3.8486,3.8478,3.846,3.845,3.8425,3.8454,3.8421,3.842,3.8424,3.8373,3.8365,3.8322,3.839,3.8389,3.8388,0,3.8598,3.8583,3.8544,3.8532,3.8524,3.8505,3.8486,3.8469,3.8453,3.845,3.8436,3.8437,3.841,3.8428,3.8389,3.8408,3.8395,3.8388,3.8386,3.8381,3.8401,3.8365,3.8309,3.8301,3.8379,3.838,3.838,0,3.8563,3.8533,3.8506,3.8499,3.8484,3.847,3.8463,3.8449,3.8436,3.8418,3.841,3.8388,3.8376,3.8358,3.8352,3.8366,3.8312,3.833,3.8306,3.8306,3.8293,3.8294,3.8232,3.8288,3.8288,3.8288,3.8288,0,3.8516,3.8492,3.849,3.8473,3.8445,3.8446,3.8417,3.841,3.8398,3.8378,3.8382,3.8362,3.8357,3.8336,3.8331,3.8298,3.8293,3.8287,3.8286,3.8286,3.8286,3.8276,3.8278,3.8286,3.8287,3.8287,3.8287,0,3.8472,3.8471,3.8441,3.843,3.8426,3.8406,3.8395,3.8377,3.8373,3.8347,3.834,3.8332,3.8307,3.83,3.8269,3.8266,3.8227,3.8229,3.8233,3.8232,3.8208,3.821,3.8136,3.8125,3.819,3.8189,3.8189,0,3.8442,3.8423,3.8411,3.8399,3.8392,3.8372,3.836,3.8359,3.8345,3.8326,3.831,3.8286,3.8267,3.8226,3.8215,3.8191,3.8191,3.8167,3.8187,3.8188,3.8188,3.8189,3.8186,3.8163,3.8162,3.8161,3.8161,0,3.8388,3.8388,3.8371,3.8354,3.834,3.8325,3.8311,3.83,3.8298,3.8281,3.8257,3.8243,3.8212,3.8187,3.8163,3.8152,3.8155,3.8155,3.8148,3.8147,3.8149,3.8145,3.822,3.8156,3.8157,3.8157,3.8157,3.8157,3.8348,3.8332,3.832,3.8301,3.8291,3.8278,3.8261,3.8255,3.8235,3.8212,3.8212,3.8185,3.8169,3.8137,3.8125,3.8102,3.8109,3.8099,3.8096,3.8093,3.809,3.8154,3.8097,3.8098,3.8098,3.8098,3.8098,0,3.8293,3.8286,3.8269,3.825,3.8234,3.8242,3.8227,3.8212,3.8189,3.8175,3.8156,3.8127,3.8103,3.8091,3.8066,3.8049,3.805,3.8042,3.8043,3.804,3.8086,3.8094,3.8043,3.8043,3.8043,3.8043,3.8043,3.8043,3.8262,3.8234,3.8233,3.8199,3.8192,3.8167,3.8158,3.8145,3.8133,3.8102,3.8083,3.8076,3.8061,3.8036,3.8013,3.8009,3.7999,3.799,3.7987,3.8031,3.8037,3.8042,3.8049,3.7989,3.7989,3.7942,3.7942,3.7942]}]]